User: anonymous   Login
Location: Space Photons Observatory
(33.2428°N, 111.5467°W)
Time: 03:04:44
(UTC-07:00)
Language:

RESURS DK-1 - Orbit

View from above orbital plane
View from above orbital plane
View from above satellite
View from above satellite

Ground track
Ground track

The orbit data is extracted from the following two-line orbital elements,

1 29228U 06021A   15030.83714785  .00000965  00000-0  82572-4 0  6584
2 29228 069.9386 146.1002 0007867 245.1008 114.9334 15.01204389477734
Epoch (UTC): 30 January 2015 20:05:29
Eccentricity: 0.0007867
inclination: 69.9386°
perigee height: 558 km
apogee height: 568 km
right ascension of ascending node: 146.1002°
argument of perigee: 245.1008°
revolutions per day: 15.01204389
mean anomaly at epoch: 114.9334°
orbit number at epoch: 47773

The dashed part of the orbit path shows where the satellite is in the earth's shadow,  

DLR